N538TW -KGWS

Flight info

Callsign N538TW
Flight time N/A
Altitude VFR
Route
Aircraft BE58/L-DOV/C

Departure

Time N/A
Airport -

Arrival

Time 2026-04-22 00:41
Airport Glenwood Springs Municipal Airport (KGWS)
Time Latitude Longitude Altitude Speed Heading
2026-04-22 00:28 39.28114 -106.87888 9629 ft 156 kts 318°
2026-04-22 00:28 39.28966 -106.88745 9953 ft 154 kts 310°
2026-04-22 00:28 39.29659 -106.89804 10255 ft 155 kts 304°
2026-04-22 00:28 39.30329 -106.90911 10569 ft 157 kts 303°
2026-04-22 00:29 39.31009 -106.92042 10822 ft 164 kts 304°
2026-04-22 00:29 39.31733 -106.93269 10839 ft 178 kts 303°
2026-04-22 00:29 39.32515 -106.94561 10846 ft 186 kts 304°
2026-04-22 00:29 39.33281 -106.95896 10846 ft 184 kts 300°
2026-04-22 00:30 39.33976 -106.97284 10856 ft 184 kts 299°
2026-04-22 00:30 39.34654 -106.98675 10874 ft 182 kts 299°
2026-04-22 00:30 39.35302 -107.00038 11063 ft 174 kts 298°
2026-04-22 00:30 39.35937 -107.01338 11286 ft 171 kts 299°
2026-04-22 00:31 39.36582 -107.02663 11509 ft 176 kts 298°
2026-04-22 00:31 39.37247 -107.03999 11746 ft 177 kts 298°
2026-04-22 00:31 39.37905 -107.05304 12040 ft 172 kts 297°
2026-04-22 00:31 39.38440 -107.06659 12264 ft 168 kts 290°
2026-04-22 00:32 39.38934 -107.08066 12288 ft 176 kts 289°
2026-04-22 00:32 39.39441 -107.09532 12293 ft 181 kts 290°
2026-04-22 00:32 39.39955 -107.11031 12300 ft 184 kts 289°
2026-04-22 00:32 39.40476 -107.12552 12300 ft 186 kts 290°
2026-04-22 00:33 39.40987 -107.14059 12284 ft 177 kts 289°
2026-04-22 00:33 39.41482 -107.15500 12174 ft 174 kts 290°
2026-04-22 00:33 39.41849 -107.16946 12058 ft 166 kts 269°
2026-04-22 00:33 39.41806 -107.18420 11953 ft 163 kts 263°
2026-04-22 00:34 39.41728 -107.19877 11801 ft 164 kts 262°
2026-04-22 00:34 39.41649 -107.21370 11560 ft 169 kts 262°
2026-04-22 00:34 39.41565 -107.22904 11256 ft 175 kts 264°
2026-04-22 00:34 39.41787 -107.24468 10898 ft 183 kts 292°
2026-04-22 00:35 39.42456 -107.25877 10526 ft 179 kts 300°
2026-04-22 00:35 39.43404 -107.26802 10093 ft 169 kts 332°
2026-04-22 00:35 39.44488 -107.27266 9653 ft 163 kts 352°
2026-04-22 00:35 39.45547 -107.26842 9191 ft 165 kts 41°
2026-04-22 00:36 39.46060 -107.25540 8811 ft 168 kts 90°
2026-04-22 00:36 39.45719 -107.24144 8508 ft 165 kts 135°
2026-04-22 00:36 39.44769 -107.23381 8141 ft 160 kts 163°
2026-04-22 00:36 39.43723 -107.22937 7641 ft 156 kts 170°
2026-04-22 00:37 39.42721 -107.22438 7282 ft 157 kts 144°
2026-04-22 00:37 39.41843 -107.21898 7450 ft 125 kts 191°
2026-04-22 00:37 39.41458 -107.22713 7357 ft 130 kts 283°
2026-04-22 00:37 39.42140 -107.23539 6933 ft 134 kts 321°
2026-04-22 00:38 39.42719 -107.24317 6835 ft 113 kts 302°
2026-04-22 00:38 39.43234 -107.25060 6726 ft 108 kts 304°
2026-04-22 00:38 39.43783 -107.25741 6559 ft 119 kts 320°
2026-04-22 00:38 39.44519 -107.26255 6504 ft 117 kts 329°
2026-04-22 00:39 39.45258 -107.26655 6491 ft 115 kts 337°
2026-04-22 00:39 39.46028 -107.27007 6384 ft 121 kts 348°
2026-04-22 00:39 39.46734 -107.27357 6390 ft 102 kts 311°
2026-04-22 00:39 39.47222 -107.28050 6190 ft 110 kts 303°
2026-04-22 00:40 39.47660 -107.28849 6187 ft 112 kts 300°
2026-04-22 00:40 39.48265 -107.29539 6115 ft 121 kts 331°
2026-04-22 00:40 39.49004 -107.29883 5995 ft 105 kts 333°
2026-04-22 00:40 39.49639 -107.30277 5945 ft 98 kts 324°
2026-04-22 00:41 39.50219 -107.30660 5852 ft 90 kts 328°
2026-04-22 00:41 39.50555 -107.30878 5856 ft 10 kts 44°
2026-04-22 00:41 39.50534 -107.30826 5855 ft 0 kts 121°
2026-04-22 00:42 39.50538 -107.30840 5856 ft 6 kts 333°
2026-04-22 00:42 39.50601 -107.30875 5857 ft 14 kts 332°
2026-04-22 00:42 39.50678 -107.30920 5856 ft 12 kts 338°
2026-04-22 00:42 39.50759 -107.30943 5857 ft 15 kts 15°
2026-04-22 00:43 39.50862 -107.31005 5856 ft 21 kts 331°
2026-04-22 00:43 39.50956 -107.31068 5856 ft 7 kts 341°
2026-04-22 00:43 39.50977 -107.31082 5857 ft 0 kts 332°
2026-04-22 00:45 39.50983 -107.31085 5858 ft 5 kts 333°
2026-04-22 00:45 39.51008 -107.31102 5862 ft 3 kts 332°
2026-04-22 00:45 39.51014 -107.31105 5862 ft 0 kts 333°
2026-04-22 00:47 39.51019 -107.31129 5861 ft 5 kts 231°
2026-04-22 00:47 39.51017 -107.31133 5862 ft 0 kts 240°
2026-04-22 00:51 39.51007 -107.31156 5865 ft 9 kts 240°
2026-04-22 00:51 39.50987 -107.31160 5864 ft 0 kts 155°
2026-04-22 00:51 39.50908 -107.31116 5861 ft 45 kts 152°
2026-04-22 00:51 39.50421 -107.30799 5889 ft 102 kts 156°
2026-04-22 00:52 39.49768 -107.30228 6101 ft 124 kts 152°
2026-04-22 00:52 39.48934 -107.29715 6322 ft 142 kts 158°
2026-04-22 00:52 39.48176 -107.28888 6700 ft 150 kts 124°
2026-04-22 00:52 39.47660 -107.27705 7221 ft 146 kts 119°
2026-04-22 00:53 39.47181 -107.26519 7879 ft 138 kts 131°
2026-04-22 00:53 39.46746 -107.25427 8458 ft 152 kts 105°
2026-04-22 00:53 39.46698 -107.23983 8678 ft 171 kts 79°
2026-04-22 00:53 39.47131 -107.22485 8904 ft 183 kts 69°
2026-04-22 00:54 39.47668 -107.20984 9173 ft 189 kts 56°
2026-04-22 00:54 39.48515 -107.19632 9332 ft 201 kts 49°
2026-04-22 00:54 39.49469 -107.18222 9350 ft 215 kts 49°
2026-04-22 00:54 39.50477 -107.16741 9364 ft 223 kts 49°
2026-04-22 00:55 39.51506 -107.15235 9499 ft 221 kts 49°
2026-04-22 00:55 39.52503 -107.13774 9767 ft 214 kts 49°
2026-04-22 00:55 39.54451 -107.10901 10245 ft 208 kts 49°
2026-04-22 00:56 39.55408 -107.09502 10482 ft 207 kts 49°
2026-04-22 00:56 39.56361 -107.08098 10722 ft 208 kts 48°
2026-04-22 00:56 39.57314 -107.06698 10959 ft 205 kts 49°
2026-04-22 00:56 39.58239 -107.05352 11194 ft 192 kts 46°
2026-04-22 00:57 39.59325 -107.04549 11417 ft 175 kts
2026-04-22 00:57 39.60453 -107.04874 11545 ft 167 kts 327°
2026-04-22 00:57 39.61455 -107.05683 11542 ft 171 kts 311°
2026-04-22 00:57 39.61931 -107.07012 11538 ft 162 kts 267°
2026-04-22 00:58 39.61521 -107.08293 11545 ft 157 kts 221°
2026-04-22 00:58 39.60499 -107.08742 11539 ft 163 kts 178°
2026-04-22 00:58 39.59466 -107.08152 11539 ft 166 kts 151°
2026-04-22 00:58 39.58494 -107.07308 11541 ft 169 kts 151°
2026-04-22 00:59 39.57571 -107.06474 11454 ft 152 kts 150°
2026-04-22 00:59 39.56740 -107.05636 11128 ft 155 kts 135°
2026-04-22 00:59 39.56254 -107.04368 10818 ft 159 kts 116°
2026-04-22 00:59 39.55845 -107.03039 10512 ft 157 kts 116°
2026-04-22 01:00 39.55416 -107.01725 10214 ft 163 kts 117°
2026-04-22 01:00 39.55021 -107.00299 9910 ft 172 kts 99°
2026-04-22 01:00 39.55318 -106.98854 9634 ft 172 kts 51°
2026-04-22 01:00 39.56242 -106.97871 9415 ft 173 kts 33°
2026-04-22 01:01 39.57227 -106.96994 9184 ft 165 kts 33°
2026-04-22 01:01 39.58132 -106.96173 8863 ft 155 kts 33°
2026-04-22 01:01 39.59021 -106.95366 8561 ft 154 kts 32°
2026-04-22 01:01 39.59867 -106.94576 8387 ft 150 kts 32°
2026-04-22 01:02 39.60733 -106.93778 8093 ft 149 kts 32°
2026-04-22 01:02 39.61388 -106.92937 8016 ft 124 kts 68°
2026-04-22 01:02 39.61564 -106.91910 8047 ft 119 kts 79°
2026-04-22 01:02 39.61756 -106.90744 8065 ft 147 kts 80°
2026-04-22 01:03 39.61983 -106.89357 8022 ft 163 kts 82°
2026-04-22 01:03 39.62133 -106.87873 8014 ft 169 kts 84°
2026-04-22 01:03 39.62297 -106.86339 7849 ft 173 kts 82°
2026-04-22 01:03 39.62455 -106.84787 7847 ft 174 kts 84°
2026-04-22 01:04 39.62614 -106.83266 7824 ft 162 kts 83°
2026-04-22 01:04 39.62750 -106.81910 7813 ft 141 kts 81°
2026-04-22 01:04 39.63252 -106.80966 7780 ft 125 kts 19°
2026-04-22 01:04 39.64067 -106.80947 7733 ft 111 kts 342°
2026-04-22 01:05 39.64644 -106.81426 7790 ft 98 kts 294°
2026-04-22 01:05 39.64945 -106.82259 7855 ft 109 kts 283°
2026-04-22 01:05 39.65189 -106.83231 7845 ft 113 kts 283°
2026-04-22 01:05 39.65266 -106.84204 7837 ft 106 kts 265°
2026-04-22 01:06 39.65198 -106.85160 7618 ft 108 kts 252°
2026-04-22 01:06 39.65060 -106.85767 7384 ft 99 kts 249°
2026-04-22 01:06 39.64881 -106.86562 7134 ft 91 kts 256°
2026-04-22 01:06 39.64754 -106.87360 6924 ft 89 kts 257°
2026-04-22 01:07 39.64642 -106.88180 6929 ft 97 kts 262°
2026-04-22 01:07 39.64557 -106.89053 6786 ft 95 kts 264°
2026-04-22 01:07 39.64471 -106.89847 6631 ft 86 kts 262°
2026-04-22 01:07 39.64385 -106.90605 6542 ft 84 kts 263°
2026-04-22 01:08 39.64309 -106.91339 6515 ft 66 kts 263°
2026-04-22 01:08 39.64202 -106.91582 6506 ft 17 kts 171°
2026-04-22 01:08 39.64188 -106.91575 6506 ft 0 kts 155°
2026-04-22 01:08 39.64188 -106.91574 6506 ft 2 kts 149°
2026-04-22 01:09 39.64190 -106.91387 6512 ft 35 kts 86°
2026-04-22 01:09 39.64217 -106.91134 6518 ft 31 kts 83°
2026-04-22 01:09 39.64248 -106.90833 6526 ft 36 kts 82°
2026-04-22 01:09 39.64285 -106.90509 6534 ft 36 kts 81°
2026-04-22 01:10 39.64316 -106.90221 6542 ft 22 kts 81°
2026-04-22 01:10 39.64331 -106.90092 6545 ft 6 kts 81°
2026-04-22 01:10 39.64335 -106.90062 6546 ft 1 kts 77°
2026-04-22 01:10 39.64336 -106.90055 6546 ft 0 kts 77°
2026-04-22 01:11 39.64336 -106.90053 6546 ft 2 kts 77°
2026-04-22 01:11 39.64352 -106.90017 6547 ft 4 kts 31°
2026-04-22 01:11 39.64355 -106.90015 6548 ft 0 kts 10°
2026-04-22 01:15 39.64388 -106.90014 6548 ft 18 kts 352°
2026-04-22 01:15 39.64426 -106.90268 6540 ft 61 kts 262°
2026-04-22 01:16 39.64347 -106.91068 6627 ft 105 kts 264°
2026-04-22 01:16 39.64117 -106.91879 7274 ft 88 kts 219°
2026-04-22 01:16 39.63407 -106.91989 7502 ft 120 kts 184°
2026-04-22 01:16 39.62647 -106.91521 7953 ft 111 kts 137°
2026-04-22 01:17 39.62058 -106.90918 8484 ft 112 kts 181°
2026-04-22 01:17 39.61533 -106.91575 8627 ft 131 kts 267°
2026-04-22 01:17 39.61733 -106.92874 8592 ft 149 kts 281°
2026-04-22 01:17 39.61714 -106.94039 9257 ft 121 kts 238°
2026-04-22 01:18 39.60966 -106.94605 9432 ft 143 kts 187°
2026-04-22 01:18 39.59995 -106.94089 9518 ft 169 kts 140°
2026-04-22 01:18 39.59480 -106.92630 9517 ft 193 kts 98°
2026-04-22 01:18 39.59766 -106.90890 9503 ft 204 kts 64°
2026-04-22 01:19 39.60593 -106.89448 9654 ft 195 kts 50°
2026-04-22 01:19 39.61485 -106.88167 9887 ft 189 kts 46°
2026-04-22 01:19 39.62419 -106.86915 9935 ft 197 kts 45°
2026-04-22 01:19 39.63379 -106.85622 10166 ft 201 kts 45°
2026-04-22 01:20 39.64347 -106.84308 10399 ft 202 kts 46°
2026-04-22 01:20 39.65331 -106.82992 10636 ft 204 kts 46°
2026-04-22 01:20 39.66085 -106.81438 10872 ft 205 kts 70°
2026-04-22 01:20 39.66550 -106.79697 11107 ft 204 kts 73°
2026-04-22 01:21 39.66993 -106.77940 11317 ft 208 kts 73°
2026-04-22 01:21 39.67592 -106.76182 11347 ft 219 kts 57°
2026-04-22 01:21 39.68512 -106.74556 11357 ft 228 kts 53°
2026-04-22 01:21 39.69494 -106.72901 11357 ft 234 kts 52°
2026-04-22 01:22 39.70495 -106.71217 11354 ft 237 kts 52°
2026-04-22 01:22 39.71502 -106.69519 11359 ft 238 kts 52°
2026-04-22 01:22 39.72308 -106.67664 11348 ft 238 kts 76°
2026-04-22 01:22 39.72275 -106.65556 11346 ft 234 kts 110°
2026-04-22 01:23 39.71396 -106.63836 11351 ft 229 kts 141°
2026-04-22 01:23 39.70136 -106.62584 11379 ft 228 kts 148°
2026-04-22 01:23 39.68837 -106.61405 11370 ft 228 kts 148°
2026-04-22 01:23 39.67527 -106.60245 11367 ft 229 kts 149°
2026-04-22 01:24 39.66258 -106.58991 11367 ft 230 kts 137°
2026-04-22 01:24 39.65173 -106.57456 11369 ft 231 kts 133°
2026-04-22 01:24 39.64129 -106.55881 11369 ft 230 kts 130°
2026-04-22 01:24 39.63420 -106.54017 11366 ft 232 kts 111°
2026-04-22 01:25 39.62934 -106.52012 11363 ft 233 kts 109°
2026-04-22 01:25 39.62479 -106.49994 11368 ft 233 kts 108°
2026-04-22 01:25 39.61968 -106.48005 11373 ft 232 kts 118°
2026-04-22 01:25 39.61132 -106.46235 11368 ft 230 kts 127°
2026-04-22 01:26 39.60226 -106.44546 11378 ft 228 kts 128°
2026-04-22 01:26 39.59243 -106.42999 11373 ft 217 kts 142°
2026-04-22 01:26 39.58049 -106.41832 11371 ft 214 kts 148°
2026-04-22 01:26 39.56842 -106.40723 11369 ft 211 kts 147°
2026-04-22 01:27 39.55613 -106.39709 11379 ft 208 kts 152°
2026-04-22 01:27 39.54343 -106.38807 11377 ft 208 kts 154°
2026-04-22 01:27 39.53068 -106.37918 11376 ft 207 kts 154°
2026-04-22 01:27 39.51818 -106.37056 11373 ft 206 kts 154°
2026-04-22 01:28 39.50559 -106.36168 11390 ft 207 kts 154°
2026-04-22 01:28 39.49284 -106.35275 11393 ft 209 kts 155°
2026-04-22 01:28 39.48002 -106.34372 11406 ft 211 kts 153°
2026-04-22 01:28 39.46684 -106.33530 11402 ft 211 kts 157°
2026-04-22 01:29 39.45342 -106.32769 11403 ft 210 kts 159°
2026-04-22 01:29 39.44001 -106.32018 11402 ft 210 kts 158°
2026-04-22 01:29 39.42656 -106.31302 11401 ft 208 kts 165°
2026-04-22 01:29 39.41239 -106.31123 11398 ft 205 kts 185°
2026-04-22 01:30 39.39819 -106.31287 11403 ft 205 kts 188°
2026-04-22 01:30 39.38404 -106.31511 11402 ft 204 kts 192°
2026-04-22 01:30 39.37092 -106.32074 11630 ft 189 kts 206°
2026-04-22 01:30 39.35983 -106.32782 11634 ft 169 kts 208°
2026-04-22 01:31 39.34971 -106.33437 11643 ft 157 kts 208°
2026-04-22 01:31 39.34022 -106.34037 11653 ft 147 kts 207°
2026-04-22 01:31 39.33121 -106.34615 11662 ft 144 kts 208°
2026-04-22 01:31 39.32233 -106.35184 11675 ft 141 kts 207°
2026-04-22 01:32 39.31332 -106.35680 11688 ft 140 kts 199°
2026-04-22 01:32 39.30370 -106.36043 11827 ft 148 kts 198°
2026-04-22 01:32 39.29353 -106.36404 11732 ft 154 kts 195°
2026-04-22 01:32 39.28289 -106.36325 11712 ft 153 kts 172°
2026-04-22 01:33 39.27268 -106.36038 11672 ft 147 kts 172°
2026-04-22 01:33 39.26290 -106.35778 11530 ft 141 kts 173°
2026-04-22 01:33 39.25330 -106.35543 11372 ft 140 kts 173°
2026-04-22 01:33 39.24379 -106.35347 11204 ft 137 kts 173°
2026-04-22 01:34 39.23450 -106.35164 11092 ft 130 kts 173°
2026-04-22 01:34 39.22589 -106.34966 11092 ft 124 kts 174°
2026-04-22 01:34 39.21759 -106.34768 11138 ft 125 kts 174°
2026-04-22 01:34 39.20872 -106.34554 11114 ft 129 kts 174°
2026-04-22 01:35 39.20000 -106.34315 11109 ft 131 kts 174°
2026-04-22 01:35 39.19100 -106.34066 11110 ft 130 kts 174°
2026-04-22 01:35 39.18214 -106.33843 11104 ft 132 kts 174°
2026-04-22 01:35 39.17309 -106.33620 11107 ft 133 kts 174°
2026-04-22 01:36 39.16508 -106.33091 10879 ft 147 kts 109°
2026-04-22 01:36 39.16922 -106.31798 10433 ft 156 kts 50°
2026-04-22 01:36 39.17758 -106.31167 10648 ft 142 kts 10°
2026-04-22 01:36 39.18718 -106.30865 10630 ft 140 kts 11°
2026-04-22 01:37 39.19648 -106.30790 10446 ft 132 kts 343°
2026-04-22 01:37 39.20518 -106.31257 10191 ft 135 kts 333°
2026-04-22 01:37 39.21325 -106.31506 9929 ft 103 kts 345°
2026-04-22 01:37 39.21917 -106.31638 9931 ft 72 kts 352°
2026-04-22 01:38 39.22230 -106.31668 9936 ft 24 kts 31°
2026-04-22 01:38 39.22330 -106.31610 9938 ft 9 kts
2026-04-22 01:38 39.22383 -106.31630 9938 ft 6 kts 311°
2026-04-22 01:38 39.22384 -106.31642 9937 ft 0 kts 258°